Weather in Chumpu-Kytyl

Russia / Sakha (Yakutia) Republic     65°22′15″N   143°08′46″E
temp.,
°C
wind,
m/s
gust,
m/s
humid.,
%
clouds,
%
prec.,
mm/h
press.,
hPa
HPBL,
m
16 april, fri
fri1623:00−19ene1195100 0.0 10089
02:00−20ene1197100 0.0 10089
05:00−22ese0198100 0.0 10089
08:00−19ssw1195100 0.0 100772
11:00−14ssw228558 0.0 1006328
14:00−11ssw337141 0.0 1004736
17:00−11ssw336881 0.0 1004869
20:00−16ssw22885 0.0 100810
17 april, sat
sat1723:00−26se219822 0.0 10139
02:00−28se1110069 0.0 10159
05:00−27sse1110096 0.1 101610
08:00−22ssw1210087 0.1 101364
11:00−14s349299 0.2 1007300
14:00−9s458190 0.2 1001659
17:00−9s4585100 0.3 999519
20:00−10sse3391100 0.1 99944
18 april, sun
sun1823:00−12sse3395100 0.3 99939
02:00−9sse4595100 0.4 997124
05:00−9sse3595100 1.9 996167
08:00−8s3595100 1.6 999259
11:00−7s4591100 2.3 1000460
14:00−6ssw61581100 1.1 10021962
17:00−8wsw9186717 1.3 10072083
20:00−12s57751 0.0 1011122
19 april, mon
mon1923:00−21s339517 0.0 101919
02:00−24sse2110076 0.0 102413
05:00−25sse2110065 0.0 102911
08:00−20ssw229959 0.0 102964
11:00−14ssw2286100 0.1 1027287
14:00−10ssw237273 0.0 1025530
17:00−8s1262100 0.0 1023563
20:00−10ssw1184100 0.0 102310
20 april, tue
tue2023:00−12e118969 0.0 102410
02:00−16e1193100 0.0 10259
05:00−17nne0094100 0.0 10249
08:00−14w1192100 0.0 102258
11:00−10w1189100 0.0 1019183
14:00−7sw1191100 0.4 1016220
17:00−4ssw2290100 0.5 1013315
20:00−5ssw119678 0.1 101410